EW7119 Weather Reports


Display with metric or nautical units.
time (UTC)temp
F
wind
direction
speed
MPH
gust
MPH
rain 1hr
in
rain 24hr
in
rain mn
in
humidity
%
barometer
mb
20260904194505 71 290 0.0 0.0 0.00 0.00 0.00 34 1002.2
20260904193006 70 210 0.0 0.0 0.00 0.00 0.00 33 1002.4
20260904191514 70 146 0.0 4.0 0.00 0.00 0.00 34 1002.5
20260904190133 70 123 0.0 0.0 0.00 0.00 0.00 36 1002.6
20260904184557 72 329 0.0 6.0 0.00 0.00 0.00 32 1002.7
20260904183045 70 257 0.0 0.0 0.00 0.00 0.00 34 1002.7
20260904181553 70 257 0.0 0.0 0.00 0.00 0.00 35 1003.1
20260904180104 73 185 0.0 7.0 0.00 0.00 0.00 33 1003.2
20260904174523 71 298 0.0 7.0 0.00 0.00 0.00 34 1003.3
20260904173007 71 242 0.0 10.0 0.00 0.00 0.00 34 1003.3
20260904171524 72 173 0.0 9.0 0.00 0.00 0.00 33 1003.3
20260904170045 70 252 0.0 3.0 0.00 0.00 0.00 34 1003.2
20260904164556 69 312 1.0 7.0 0.00 0.00 0.00 34 1003.3
20260904163058 69 290 0.0 2.0 0.00 0.00 0.00 36 1003.3
20260904161551 68 147 1.0 12.0 0.00 0.00 0.00 39 1003.4
20260904160055 66 260 0.0 0.0 0.00 0.00 0.00 40 1003.6
20260904154556 67 257 0.0 0.0 0.00 0.00 0.00 38 1003.7
20260904153050 66 266 0.0 0.0 0.00 0.00 0.00 38 1003.7
20260904151548 65 184 0.0 0.0 0.00 0.00 0.00 41 1003.6
20260904150121 63 128 0.0 0.0 0.00 0.00 0.00 42 1003.6
20260904144533 62 217 0.0 0.0 0.00 0.00 0.00 42 1003.5
20260904143023 61 123 0.0 0.0 0.00 0.00 0.00 46 1003.5
20260904141548 59 123 0.0 0.0 0.00 0.00 0.00 48 1003.5
20260904140056 57 148 0.0 0.0 0.00 0.00 0.00 52 1003.3
20260904134625 55 148 0.0 0.0 0.00 0.00 0.00 54 1003.3
20260904133005 54 148 0.0 0.0 0.00 0.00 0.00 54 1003.0
20260904131520 53 148 0.0 0.0 0.00 0.00 0.00 54 1002.8
20260904130032 53 213 0.0 0.0 0.00 0.00 0.00 52 1002.7
20260904124529 53 213 0.0 0.0 0.00 0.00 0.00 52 1002.5
20260904123052 54 214 0.0 0.0 0.00 0.00 0.00 51 1002.5
20260904121600 53 92 0.0 0.0 0.00 0.00 0.00 51 1002.4
20260904120110 52 92 0.0 0.0 0.00 0.00 0.00 53 1002.3
20260904114504 53 92 0.0 0.0 0.00 0.00 0.00 51 1002.2
20260904113113 53 92 0.0 0.0 0.00 0.00 0.00 50 1002.2
20260904111608 53 92 0.0 0.0 0.00 0.00 0.00 50 1002.3
20260904110059 53 92 0.0 0.0 0.00 0.00 0.00 47 1002.2
20260904104558 53 92 0.0 0.0 0.00 0.00 0.00 47 1002.3
20260904103056 53 92 0.0 0.0 0.00 0.00 0.00 47 1002.1
20260904101602 53 92 0.0 0.0 0.00 0.00 0.00 46 1002.1
20260904100054 53 77 0.0 0.0 0.00 0.00 0.00 46 1001.9
20260904094546 52 97 0.0 0.0 0.00 0.00 0.00 47 1001.8
20260904093106 52 90 0.0 0.0 0.00 0.00 0.00 46 1001.6
20260904091600 53 90 0.0 0.0 0.00 0.00 0.00 46 1001.6
20260904090105 52 90 0.0 0.0 0.00 0.00 0.00 46 1001.6
20260904084510 52 81 0.0 0.0 0.00 0.00 0.00 47 1001.6
20260904083019 53 81 0.0 0.0 0.00 0.00 0.00 48 1001.4
20260904081515 53 121 0.0 0.0 0.00 0.00 0.00 48 1001.5
20260904080134 53 121 0.0 0.0 0.00 0.00 0.00 47 1001.7
20260904074504 53 121 0.0 0.0 0.00 0.00 0.00 48 1001.6
20260904073135 54 121 0.0 0.0 0.00 0.00 0.00 46 1001.6
20260904071602 56 121 0.0 0.0 0.00 0.00 0.00 42 1001.5
20260904070131 57 121 0.0 0.0 0.00 0.00 0.00 41 1001.4
20260904064507 58 121 0.0 0.0 0.00 0.00 0.00 39 1001.4
20260904063022 57 121 0.0 0.0 0.00 0.00 0.00 41 1001.2
20260904061522 57 121 0.0 0.0 0.00 0.00 0.00 42 1001.2
20260904060028 57 173 0.0 0.0 0.00 0.00 0.00 44 1001.2
20260904054537 58 216 0.0 0.0 0.00 0.00 0.00 43 1001.2
20260904053043 59 216 0.0 0.0 0.00 0.00 0.00 44 1001.2
20260904051527 60 216 0.0 0.0 0.00 0.00 0.00 44 1001.3
20260904050047 62 261 0.0 0.0 0.00 0.00 0.00 40 1001.4
20260904044555 63 146 0.0 1.0 0.00 0.00 0.00 41 1001.3
20260904043109 63 150 0.0 8.0 0.00 0.00 0.00 39 1001.5
20260904041615 62 131 0.0 2.0 0.00 0.00 0.00 37 1001.6
20260904040014 64 137 0.0 7.0 0.00 0.00 0.00 33 1001.8
20260904034538 64 126 0.0 14.0 0.00 0.00 0.00 32 1001.8
20260904033043 64 123 0.0 12.0 0.00 0.00 0.00 32 1001.7
20260904031544 64 129 0.0 9.0 0.00 0.00 0.00 31 1001.6
20260904030002 65 150 0.0 1.0 0.00 0.00 0.00 30 1001.5
20260904024517 65 136 0.0 10.0 0.00 0.00 0.00 30 1001.4
20260904023059 65 137 0.0 12.0 0.00 0.00 0.00 30 1001.3
20260904021610 64 150 0.0 9.0 0.00 0.00 0.00 31 1001.0
20260904020120 65 134 0.0 1.0 0.00 0.00 0.00 30 1001.0
20260904014631 66 140 0.0 0.0 0.00 0.00 0.00 28 1000.8
20260904013134 66 132 0.0 0.0 0.00 0.00 0.00 27 1000.8
20260904011612 67 144 0.0 0.0 0.00 0.00 0.00 28 1000.8
20260904010138 68 144 0.0 7.0 0.00 0.00 0.00 26 1000.8
20260904004610 69 149 0.0 1.0 0.00 0.00 0.00 25 1000.6
20260904003108 70 128 0.0 11.0 0.00 0.00 0.00 25 1000.7
20260904001608 70 173 0.0 8.0 0.00 0.00 0.00 25 1000.8
20260904000104 70 177 1.0 9.0 0.00 0.00 0.00 24 1000.8
20260903234552 71 156 0.0 0.0 0.00 0.00 0.00 24 1000.9
20260903233054 72 196 0.0 0.0 0.00 0.00 0.00 24 1000.9
20260903231558 73 165 1.0 8.0 0.00 0.00 0.00 22 1000.8
20260903230114 73 268 0.0 7.0 0.00 0.00 0.00 22 1000.9
20260903224612 72 169 0.0 0.0 0.00 0.00 0.00 23 1000.9
20260903223049 72 250 0.0 6.0 0.00 0.00 0.00 26 1001.1
20260903221541 72 125 0.0 6.0 0.00 0.00 0.00 26 1001.2
20260903220030 73 138 0.0 2.0 0.00 0.00 0.00 26 1001.2
20260903214603 73 248 0.0 1.0 0.00 0.00 0.00 25 1001.1
20260903213042 75 184 0.0 1.0 0.00 0.00 0.00 24 1001.3
20260903211519 74 211 0.0 1.0 0.00 0.00 0.00 26 1001.4
20260903210123 73 228 0.0 2.0 0.00 0.00 0.00 25 1001.5
20260903204550 73 245 0.0 0.0 0.00 0.00 0.00 27 1001.6
20260903203106 73 194 0.0 7.0 0.00 0.00 0.00 28 1001.7
20260903201516 73 162 0.0 1.0 0.00 0.00 0.00 24 1002.0
20260903200010 73 231 0.0 9.0 0.00 0.00 0.00 23 1002.0